When you browse on this site, cookies collect data to enhance your experience and personalize the content and advertising you see.
Visit our Privacy Policy to learn more. By continuing to use the site, you agree to this use of cookies and data.
  • In Hungary
  • List of Countries
  • For 7 days
  • Water Temperature
  • Satellite Maps
  • Weather Map
  • News
  • Weather Widgets
  • user-avatar
    Login

    Hourly Weather Olsza

    Today, 21 January, Monday

    Time Temperature Precipitation Wind Pressure Humidity
    00:00 -3°C° 0 mm 1 mps 760 mmHg 78%
    01:00 -3°C° 0 mm 1 mps 761 mmHg 79%
    02:00 -3°C° 0 mm 1 mps 761 mmHg 80%
    03:00 -3°C° 0 mm 1 mps 761 mmHg 81%
    04:00 -3°C° 0 mm 1 mps 761 mmHg 81%
    05:00 -3°C° 0 mm 1 mps 761 mmHg 82%
    06:00 -3°C° 0 mm 1 mps 761 mmHg 82%
    07:00 -3°C° 0 mm 1 mps 761 mmHg 82%
    08:00 -3°C° 0 mm 1 mps 761 mmHg 79%
    09:00 -2°C° 0 mm 1 mps 761 mmHg 75%
    10:00 -4°C° 0 mm 2 mps 761 mmHg 72%
    11:00 -3°C° 0 mm 2 mps 761 mmHg 68%
    12:00 -2°C° 0 mm 2 mps 761 mmHg 64%
    13:00 -2°C° 0 mm 2 mps 760 mmHg 60%
    14:00 -2°C° 0 mm 2 mps 760 mmHg 61%
    15:00 -3°C° 0 mm 2 mps 760 mmHg 63%
    16:00 -1°C° 0 mm 1 mps 759 mmHg 65%
    17:00 -3°C° 0 mm 2 mps 759 mmHg 65%
    18:00 -4°C° 0 mm 2 mps 759 mmHg 66%
    19:00 -4°C° 0 mm 2 mps 759 mmHg 67%
    20:00 -4°C° 0 mm 2 mps 759 mmHg 68%
    21:00 -4°C° 0 mm 2 mps 759 mmHg 68%
    22:00 -4°C° 0 mm 2 mps 758 mmHg 69%
    23:00 -4°C° 0 mm 2 mps 758 mmHg 70%

    Tomorrow, 22 January, Tuesday

    Time Temperature Precipitation Wind Pressure Humidity
    00:00 -5°C° 0 mm 2 mps 758 mmHg 70%
    01:00 -5°C° 0 mm 2 mps 757 mmHg 71%
    02:00 -5°C° 0 mm 2 mps 757 mmHg 71%
    03:00 -5°C° 0 mm 2 mps 756 mmHg 71%
    04:00 -5°C° 0 mm 2 mps 756 mmHg 71%
    05:00 -5°C° 0 mm 2 mps 756 mmHg 71%
    06:00 -5°C° 0 mm 2 mps 755 mmHg 70%
    07:00 -3°C° 0 mm 1 mps 755 mmHg 70%
    08:00 -2°C° 0 mm 1 mps 755 mmHg 67%
    09:00 -2°C° 0 mm 1 mps 755 mmHg 64%
    10:00 -4°C° 0 mm 2 mps 754 mmHg 62%
    11:00 -1°C° 0 mm 1 mps 754 mmHg 58%
    12:00 0°C° 0 mm 1 mps 753 mmHg 55%
    13:00 0°C° 0 mm 1 mps 753 mmHg 52%
    14:00 0°C° 0 mm 1 mps 752 mmHg 55%
    15:00 -3°C° 0 mm 2 mps 752 mmHg 57%
    16:00 -3°C° 0 mm 2 mps 751 mmHg 60%
    17:00 -3°C° 0 mm 2 mps 751 mmHg 62%
    18:00 -4°C° 0 mm 2 mps 751 mmHg 64%
    19:00 -4°C° 0 mm 2 mps 751 mmHg 67%
    20:00 -4°C° 0 mm 2 mps 751 mmHg 68%
    21:00 -5°C° 0 mm 2 mps 750 mmHg 69%
    22:00 -5°C° 0 mm 2 mps 750 mmHg 70%
    23:00 -5°C° 0 mm 2 mps 750 mmHg 71%

    Day after tomorrow, 23 January, Wednesday

    Time Temperature Precipitation Wind Pressure Humidity
    00:00 -5°C° 0 mm 2 mps 750 mmHg 73%
    01:00 -6°C° 0 mm 3 mps 749 mmHg 74%
    02:00 -6°C° 0 mm 3 mps 749 mmHg 76%
    03:00 -6°C° 0 mm 3 mps 749 mmHg 79%
    04:00 -6°C° 0 mm 3 mps 749 mmHg 81%
    05:00 -7°C° 0 mm 3 mps 749 mmHg 82%
    06:00 -7°C° 0 mm 3 mps 749 mmHg 82%
    07:00 -7°C° 0 mm 3 mps 749 mmHg 83%
    08:00 -7°C° 0 mm 4 mps 749 mmHg 82%
    09:00 -7°C° 0 mm 4 mps 749 mmHg 81%
    10:00 -7°C° 0 mm 4 mps 749 mmHg 80%
    11:00 -5°C° 0 mm 4 mps 749 mmHg 76%
    12:00 -5°C° 0 mm 4 mps 749 mmHg 73%
    13:00 -4°C° 0 mm 4 mps 749 mmHg 69%
    14:00 -4°C° 0 mm 4 mps 750 mmHg 70%
    15:00 -4°C° 0 mm 4 mps 750 mmHg 71%
    16:00 -5°C° 0 mm 3 mps 750 mmHg 71%
    17:00 -5°C° 0 mm 4 mps 750 mmHg 72%
    18:00 -5°C° 0 mm 4 mps 751 mmHg 73%
    19:00 -7°C° 0 mm 4 mps 751 mmHg 74%
    20:00 -7°C° 0 mm 4 mps 752 mmHg 75%
    21:00 -7°C° 0 mm 4 mps 752 mmHg 76%
    22:00 -6°C° 0 mm 3 mps 752 mmHg 77%
    23:00 -7°C° 0 mm 3 mps 753 mmHg 78%

    24 January, Thursday

    Time Temperature Precipitation Wind Pressure Humidity
    00:00 -7°C° 0 mm 3 mps 753 mmHg 79%
    01:00 -7°C° 0 mm 3 mps 753 mmHg 80%
    02:00 -7°C° 0 mm 3 mps 753 mmHg 80%
    03:00 -7°C° 0 mm 3 mps 754 mmHg 80%
    04:00 -7°C° 0 mm 3 mps 754 mmHg 80%
    05:00 -8°C° 0 mm 3 mps 754 mmHg 81%
    06:00 -8°C° 0 mm 3 mps 755 mmHg 81%
    07:00 -8°C° 0 mm 3 mps 755 mmHg 81%
    08:00 -7°C° 0 mm 3 mps 755 mmHg 78%
    09:00 -7°C° 0 mm 3 mps 756 mmHg 75%
    10:00 -8°C° 0 mm 4 mps 756 mmHg 73%
    11:00 -6°C° 0 mm 3 mps 756 mmHg 70%
    12:00 -6°C° 0 mm 3 mps 756 mmHg 68%
    13:00 -5°C° 0 mm 3 mps 756 mmHg 65%
    14:00 -5°C° 0 mm 3 mps 756 mmHg 66%
    15:00 -4°C° 0 mm 2 mps 756 mmHg 67%
    16:00 -5°C° 0 mm 2 mps 756 mmHg 68%
    17:00 -5°C° 0 mm 2 mps 757 mmHg 69%
    18:00 -5°C° 0 mm 2 mps 757 mmHg 70%
    19:00 -5°C° 0 mm 2 mps 757 mmHg 71%
    20:00 -6°C° 0 mm 2 mps 757 mmHg 72%
    21:00 -6°C° 0 mm 2 mps 758 mmHg 73%
    22:00 -6°C° 0 mm 2 mps 758 mmHg 74%
    23:00 -4°C° 0 mm 1 mps 758 mmHg 76%

    25 January, Friday

    Time Temperature Precipitation Wind Pressure Humidity
    00:00 -4°C° 0 mm 1 mps 758 mmHg 77%
    01:00 -4°C° 0 mm 1 mps 758 mmHg 79%
    02:00 -4°C° 0 mm 1 mps 758 mmHg 79%
    03:00 -4°C° 0 mm 1 mps 758 mmHg 80%
    04:00 -4°C° 0 mm 1 mps 757 mmHg 81%
    05:00 -6°C° 0 mm 1 mps 758 mmHg 82%
    06:00 -6°C° 0 mm 0 mps 758 mmHg 83%
    07:00 -6°C° 0 mm 0 mps 758 mmHg 84%
    08:00 -5°C° 0 mm 0 mps 758 mmHg 81%
    09:00 -5°C° 0 mm 0 mps 758 mmHg 78%
    10:00 -4°C° 0 mm 1 mps 758 mmHg 76%
    11:00 -3°C° 0 mm 1 mps 758 mmHg 72%
    12:00 -4°C° 0 mm 2 mps 758 mmHg 68%
    13:00 -3°C° 0 mm 2 mps 757 mmHg 64%
    14:00 -4°C° 0 mm 2 mps 757 mmHg 65%
    15:00 -4°C° 0 mm 2 mps 756 mmHg 66%
    16:00 -4°C° 0 mm 2 mps 756 mmHg 68%
    17:00 -4°C° 0 mm 2 mps 756 mmHg 69%
    18:00 -5°C° 0 mm 2 mps 755 mmHg 70%
    19:00 -6°C° 0 mm 3 mps 755 mmHg 72%
    20:00 -6°C° 0 mm 3 mps 754 mmHg 71%
    21:00 -7°C° 0 mm 4 mps 754 mmHg 69%
    22:00 -5°C° 0 mm 4 mps 754 mmHg 68%
    23:00 -6°C° 0 mm 5 mps 753 mmHg 65%

    26 January, Saturday

    Time Temperature Precipitation Wind Pressure Humidity
    00:00 -5°C° 0 mm 5 mps 752 mmHg 63%
    01:00 -5°C° 0 mm 5 mps 752 mmHg 60%
    02:00 -5°C° 0 mm 5 mps 751 mmHg 65%
    03:00 -4°C° 0 mm 5 mps 750 mmHg 70%
    04:00 -4°C° 0 mm 6 mps 750 mmHg 75%
    05:00 -4°C° 0.4 mm 5 mps 749 mmHg 81%
    06:00 -2°C° 0.4 mm 5 mps 749 mmHg 87%
    07:00 -2°C° 0.4 mm 5 mps 749 mmHg 93%
    08:00 -2°C° 0.3 mm 5 mps 748 mmHg 93%
    09:00 -1°C° 0.3 mm 5 mps 748 mmHg 93%
    10:00 -1°C° 0.3 mm 5 mps 748 mmHg 93%
    11:00 0°C° 0.6 mm 5 mps 748 mmHg 93%
    12:00 0°C° 0.6 mm 5 mps 747 mmHg 93%
    13:00 0°C° 0.6 mm 5 mps 747 mmHg 94%
    14:00 0°C° 0.2 mm 5 mps 747 mmHg 94%
    15:00 0°C° 0.2 mm 4 mps 746 mmHg 94%
    16:00 0°C° 0.2 mm 4 mps 746 mmHg 94%
    17:00 0°C° 0.1 mm 4 mps 746 mmHg 94%
    18:00 0°C° 0.1 mm 4 mps 745 mmHg 94%
    19:00 0°C° 0.1 mm 4 mps 745 mmHg 94%
    20:00 0°C° 0.2 mm 4 mps 745 mmHg 93%
    21:00 0°C° 0.2 mm 4 mps 744 mmHg 93%
    22:00 0°C° 0.2 mm 4 mps 744 mmHg 92%
    23:00 0°C° 0.2 mm 5 mps 743 mmHg 92%
    Show more